COSMOS 2491 DEB, 45130

Orbit data source: Space-Track

COSMOS 2491 DEB, 45130 is space debris in LEO originally from a launch on Wed, 25 Dec 2013 UTC launched from the Plesetsk Missile And Space Complex (PKMTR). Debris objects in space refer to the collection of defunct objects orbiting the Earth. Examples of debris include non-operational satellites, rocket bodies, and fragments generated from explosions, collisions, or faulty payload assembly.

Loading next visibility...
Identifier
45130, 2013-076AC
Orbit
LEO
Country
Flag of CISCIS
Related business
Manufacturer
TsNIIKhM
Mission
Spacecraft
Bus & Motor
Unknown
Mass
Unknown
Launch date (UTC)
2013-12-25 (12 years ago)
Launch vehicle
Unknown
Launch site
Plesetsk Missile And Space Complex (PKMTR)
Object type
Payload
Rocket body
Debris
Shape & HBR
Unknown
Radar Cross Section
Small (<0.1 m²)

Expand to show TLE details & history
Last TLE update: 5 days ago

TLE from 5 days ago
0 COSMOS 2491 DEB
1 45130U 13076AC  25256.32112131  .00001920  00000-0  90725-2 0  9991
2 45130  82.4469 284.9743 0165523  52.6742 308.9307 12.70276915259515
Epoch: 2025-09-13T07:42Z
TLE epoch observation values (Epoch: 2025-09-13T07:42:24.881Z)
Latitude
0.00007°
Longitude
176.81448°
Altitude
1,304.141 km
Speed
7.241 km/s
True Right ascension
18h 59m 53s
True Declination
0° 00' 00"
Sunlit
Object was in daylight at epoch
Visualization orbit readout
Latitude
Unknown
Longitude
Unknown
Altitude
Unknown
Speed
Unknown
Apparent Right ascension
Unknown
Apparent Declination
Unknown
Sunlit
N/A
Visualization observer readout
Local Sidereal Time
00:58:37
Azimuth
Unknown
Elevation
Unknown
Doppler factor
Unknown
Orbital elements
Apogee altitude
1,506.509 km
Perigee altitude
1,249.741 km
Semi-major axis
7,756.262 km
Eccentricity
0.01655
Inclination
82.4469°
RAAN
284.9743°
Arg. of periapsis
52.6742°
True anomaly
307.43595°
Mean anomaly
308.9307°
Eccentric anomaly
308.18526°
Mean motion
3.17735 °/min
Orbital period
113.3 mins
BSTAR
0.0090725
Loading maneuver chart data...
Computing Atmospheric mass density...
Loading historical data...
Loading historical data...
Loading historical data...
Loading historical data...
Loading historical data...
Loading historical data...
Loading historical data...

Documentation

Showing up to 5 results
|